Orbital Elements at Epoch 2459200.5 (2020-Dec-17.0) TDB
Reference: JPL 16 (heliocentric ecliptic J2000)
Element | Value | Uncertainty (1-sigma) | Units |
e | .06071337421068407 | 4.1916e-08 | |
a | 3.082098248896058 | 2.9527e-08 | au |
q | 2.894973664556737 | 1.3409e-07 | au |
i | 1.922871899483047 | 4.9661e-06 | deg |
node | 269.1748227899549 | 0.0001667 | deg |
peri | 163.164501115955 | 0.00017437 | deg |
M | 262.1392318870207 | 5.3136e-05 | deg |
tp | 2459737.747328273868 (2022-Jun-07.24732827) | 0.00029449 | TDB |
period | 1976.369508517484 5.41 | 2.8401e-05 7.776e-08 | d yr |
n | .1821521726825484 | 2.6175e-09 | deg/d |
Q | 3.269222833235378 | 3.1319e-08 | au |
|
| | Orbit Determination Parameters
Additional Information
|